SWA283 KSAN-KSFO

Flight info

Callsign SWA283
Flight time N/A
Altitude 36000
Route PADRZ2 IKAYE RIZIN SPLNT STOKD SERFR SERFR4
Aircraft B738/M-SDE2E3FGHIRWXY/LB1

Departure

Time 2026-04-21 06:37
Airport San Diego International Airport (KSAN)

Arrival

Time N/A
Airport San Francisco International Airport (KSFO)
Time Latitude Longitude Altitude Speed Heading
2026-04-21 06:11 32.73340 -117.19779 21 ft 0 kts 282°
2026-04-21 06:26 32.73339 -117.19772 21 ft 2 kts 282°
2026-04-21 06:26 32.73335 -117.19754 21 ft 2 kts 283°
2026-04-21 06:26 32.73327 -117.19740 21 ft 2 kts 326°
2026-04-21 06:27 32.73313 -117.19733 21 ft 2 kts 359°
2026-04-21 06:27 32.73305 -117.19734 21 ft 1 kts 18°
2026-04-21 06:27 32.73299 -117.19737 21 ft 0 kts 16°
2026-04-21 06:30 32.73300 -117.19736 21 ft 0 kts 16°
2026-04-21 06:31 32.73335 -117.19722 21 ft 8 kts 19°
2026-04-21 06:31 32.73395 -117.19688 21 ft 10 kts 46°
2026-04-21 06:31 32.73405 -117.19595 22 ft 13 kts 102°
2026-04-21 06:31 32.73373 -117.19463 22 ft 19 kts 106°
2026-04-21 06:32 32.73328 -117.19280 22 ft 24 kts 106°
2026-04-21 06:32 32.73282 -117.19087 22 ft 23 kts 105°
2026-04-21 06:32 32.73238 -117.18902 22 ft 22 kts 106°
2026-04-21 06:32 32.73194 -117.18722 22 ft 22 kts 106°
2026-04-21 06:33 32.73151 -117.18543 22 ft 22 kts 107°
2026-04-21 06:33 32.73107 -117.18366 22 ft 22 kts 106°
2026-04-21 06:33 32.73063 -117.18180 23 ft 24 kts 106°
2026-04-21 06:33 32.73016 -117.17992 23 ft 23 kts 106°
2026-04-21 06:34 32.72973 -117.17817 23 ft 19 kts 106°
2026-04-21 06:34 32.72961 -117.17725 24 ft 0 kts 76°
2026-04-21 06:35 32.72983 -117.17680 24 ft 14 kts 38°
2026-04-21 06:35 32.73053 -117.17725 24 ft 8 kts 285°
2026-04-21 06:36 32.73055 -117.17734 24 ft 0 kts 285°
2026-04-21 06:36 32.73055 -117.17735 24 ft 0 kts 285°
2026-04-21 06:36 32.73074 -117.17815 24 ft 28 kts 286°
2026-04-21 06:36 32.73188 -117.18256 23 ft 90 kts 286°
2026-04-21 06:37 32.73439 -117.19312 167 ft 162 kts 286°
2026-04-21 06:37 32.73714 -117.20632 1074 ft 175 kts 283°
2026-04-21 06:37 32.74117 -117.21964 1834 ft 180 kts 307°
2026-04-21 06:37 32.75012 -117.23063 2445 ft 195 kts 315°
2026-04-21 06:38 32.75911 -117.24354 3078 ft 211 kts 306°
2026-04-21 06:38 32.76738 -117.25848 3739 ft 226 kts 302°
2026-04-21 06:38 32.77599 -117.27480 4406 ft 240 kts 302°
2026-04-21 06:38 32.78486 -117.29148 5220 ft 246 kts 301°
2026-04-21 06:39 32.79418 -117.30881 6103 ft 249 kts 301°
2026-04-21 06:39 32.80409 -117.32621 6958 ft 255 kts 304°
2026-04-21 06:39 32.81510 -117.34338 7764 ft 265 kts 306°
2026-04-21 06:39 32.82707 -117.36146 8359 ft 283 kts 306°
2026-04-21 06:40 32.83925 -117.37997 9139 ft 291 kts 305°
2026-04-21 06:40 32.85165 -117.39903 9960 ft 297 kts 304°
2026-04-21 06:40 32.86447 -117.41888 10639 ft 309 kts 304°
2026-04-21 06:40 32.87806 -117.44002 11199 ft 325 kts 304°
2026-04-21 06:41 32.89216 -117.46197 11716 ft 341 kts 304°
2026-04-21 06:41 32.90659 -117.48438 12443 ft 349 kts 304°
2026-04-21 06:41 32.92148 -117.50748 13276 ft 353 kts 304°
2026-04-21 06:41 32.93635 -117.53056 14084 ft 357 kts 304°
2026-04-21 06:42 32.95144 -117.55402 14852 ft 361 kts 304°
2026-04-21 06:42 32.96634 -117.57716 15198 ft 356 kts 304°
2026-04-21 06:42 32.98178 -117.60130 15678 ft 368 kts 304°
2026-04-21 06:42 32.99719 -117.62537 16494 ft 369 kts 304°
2026-04-21 06:43 33.01282 -117.64979 17200 ft 373 kts 304°
2026-04-21 06:43 33.02857 -117.67441 17846 ft 378 kts 303°
2026-04-21 06:43 33.04440 -117.69910 18557 ft 381 kts 304°
2026-04-21 06:43 33.06115 -117.72370 19212 ft 386 kts 307°
2026-04-21 06:44 33.08005 -117.74699 19903 ft 391 kts 313°
2026-04-21 06:44 33.10037 -117.76881 20600 ft 394 kts 315°
2026-04-21 06:44 33.12123 -117.78992 21215 ft 398 kts 316°
2026-04-21 06:44 33.14272 -117.81125 21879 ft 400 kts 317°
2026-04-21 06:45 33.16425 -117.83260 22481 ft 403 kts 317°
2026-04-21 06:45 33.18572 -117.85407 23044 ft 406 kts 317°
2026-04-21 06:45 33.20729 -117.87633 23629 ft 408 kts 314°
2026-04-21 06:45 33.22812 -117.89989 24211 ft 409 kts 312°
2026-04-21 06:46 33.24846 -117.92420 24785 ft 411 kts 311°
2026-04-21 06:46 33.26851 -117.94864 25359 ft 413 kts 311°
2026-04-21 06:46 33.28842 -117.97298 25872 ft 416 kts 311°
2026-04-21 06:46 33.30878 -117.99775 26428 ft 417 kts 311°
2026-04-21 06:47 33.32904 -118.02228 26909 ft 420 kts 311°
2026-04-21 06:47 33.34972 -118.04724 27427 ft 422 kts 311°
2026-04-21 06:47 33.37035 -118.07207 27888 ft 425 kts 311°
2026-04-21 06:47 33.39118 -118.09708 28347 ft 428 kts 311°
2026-04-21 06:48 33.41232 -118.12244 28855 ft 429 kts 311°
2026-04-21 06:48 33.43332 -118.14765 29259 ft 432 kts 311°
2026-04-21 06:48 33.45473 -118.17336 29725 ft 434 kts 311°
2026-04-21 06:48 33.47577 -118.19861 30333 ft 432 kts 311°
2026-04-21 06:49 33.49703 -118.22414 30840 ft 432 kts 311°
2026-04-21 06:49 33.51808 -118.24946 31336 ft 432 kts 311°
2026-04-21 06:49 33.53931 -118.27498 31865 ft 431 kts 311°
2026-04-21 06:49 33.56031 -118.30027 32337 ft 431 kts 311°
2026-04-21 06:50 33.58145 -118.32575 32766 ft 431 kts 310°
2026-04-21 06:50 33.60253 -118.35116 33267 ft 430 kts 310°
2026-04-21 06:50 33.62370 -118.37672 33647 ft 431 kts 310°
2026-04-21 06:50 33.64510 -118.40257 34132 ft 430 kts 310°
2026-04-21 06:51 33.66631 -118.42819 34763 ft 426 kts 310°
2026-04-21 06:51 33.68723 -118.45348 35322 ft 423 kts 310°
2026-04-21 06:51 33.70801 -118.47863 35796 ft 422 kts 310°
2026-04-21 06:51 33.72861 -118.50361 36058 ft 423 kts 310°
2026-04-21 06:52 33.74943 -118.52889 36058 ft 424 kts 310°
2026-04-21 06:52 33.79100 -118.57935 36057 ft 420 kts 310°
2026-04-21 06:53 33.83213 -118.62939 36053 ft 421 kts 310°
2026-04-21 06:53 33.87332 -118.67956 36055 ft 421 kts 310°
2026-04-21 06:54 33.91416 -118.72935 36056 ft 419 kts 310°
2026-04-21 06:54 33.95522 -118.77949 36056 ft 419 kts 310°
2026-04-21 06:55 33.99613 -118.82954 36054 ft 419 kts 310°
2026-04-21 06:55 34.03627 -118.87869 36049 ft 419 kts 310°
2026-04-21 06:56 34.07717 -118.92889 36049 ft 418 kts 310°
2026-04-21 06:56 34.11777 -118.97877 36056 ft 418 kts 309°
2026-04-21 06:57 34.15469 -119.03274 36055 ft 413 kts 300°
2026-04-21 06:57 34.18595 -119.09076 36052 ft 411 kts 297°
2026-04-21 06:58 34.21579 -119.14938 36049 ft 410 kts 297°
2026-04-21 06:58 34.24577 -119.20840 36052 ft 410 kts 297°
2026-04-21 06:59 34.27557 -119.26678 36052 ft 411 kts 297°
2026-04-21 06:59 34.30550 -119.32526 36048 ft 410 kts 297°
2026-04-21 07:00 34.33543 -119.38377 36041 ft 410 kts 297°
2026-04-21 07:00 34.36530 -119.44217 36041 ft 409 kts 297°
2026-04-21 07:01 34.39542 -119.50089 36039 ft 409 kts 297°
2026-04-21 07:01 34.44907 -119.58200 36038 ft 418 kts 309°
2026-04-21 07:02 34.49023 -119.63181 36035 ft 418 kts 310°
2026-04-21 07:02 34.53160 -119.68147 36034 ft 418 kts 309°
2026-04-21 07:03 34.57245 -119.73108 36043 ft 417 kts 308°
2026-04-21 07:03 34.61335 -119.78127 36040 ft 417 kts 308°
2026-04-21 07:04 34.65382 -119.83118 36031 ft 416 kts 308°
2026-04-21 07:04 34.69445 -119.88148 36039 ft 418 kts 308°
2026-04-21 07:05 34.73515 -119.93196 36034 ft 417 kts 308°
2026-04-21 07:05 34.77569 -119.98230 36037 ft 417 kts 308°
2026-04-21 07:06 34.81624 -120.03271 36047 ft 417 kts 308°
2026-04-21 07:06 34.85680 -120.08330 36036 ft 418 kts 308°
2026-04-21 07:07 34.89738 -120.13389 36034 ft 417 kts 308°
2026-04-21 07:07 34.93783 -120.18446 36031 ft 417 kts 307°
2026-04-21 07:08 34.97839 -120.23526 36021 ft 419 kts 307°
2026-04-21 07:08 35.01866 -120.28572 36022 ft 416 kts 307°
2026-04-21 07:09 35.05907 -120.33647 36019 ft 419 kts 307°
2026-04-21 07:09 35.09905 -120.38610 35871 ft 403 kts 308°
2026-04-21 07:10 35.11948 -120.40993 35578 ft 415 kts 309°
2026-04-21 07:10 35.14118 -120.43433 35278 ft 424 kts 310°
2026-04-21 07:10 35.16322 -120.45867 35176 ft 420 kts 310°
2026-04-21 07:10 35.18473 -120.48233 35226 ft 424 kts 310°
2026-04-21 07:11 35.22860 -120.53086 35228 ft 421 kts 310°
2026-04-21 07:11 35.27216 -120.57944 35228 ft 423 kts 309°
2026-04-21 07:12 35.31552 -120.62805 35227 ft 422 kts 309°
2026-04-21 07:12 35.35874 -120.67677 35226 ft 424 kts 309°
2026-04-21 07:13 35.40198 -120.72555 35216 ft 421 kts 309°
2026-04-21 07:13 35.44518 -120.77441 35212 ft 423 kts 308°
2026-04-21 07:14 35.48835 -120.82276 35204 ft 423 kts 310°
2026-04-21 07:14 35.53478 -120.86789 35205 ft 430 kts 314°
2026-04-21 07:15 35.58314 -120.91198 35203 ft 433 kts 315°
2026-04-21 07:15 35.63171 -120.95618 35205 ft 432 kts 314°
2026-04-21 07:16 35.67983 -121.00050 35200 ft 434 kts 314°
2026-04-21 07:16 35.72778 -121.04497 35198 ft 432 kts 314°
2026-04-21 07:17 35.77600 -121.08993 35199 ft 435 kts 314°
2026-04-21 07:17 35.82387 -121.13459 35196 ft 433 kts 313°
2026-04-21 07:18 35.87199 -121.17965 35199 ft 431 kts 313°
2026-04-21 07:18 35.91989 -121.22463 35195 ft 433 kts 313°
2026-04-21 07:19 35.96756 -121.26938 35194 ft 435 kts 313°
2026-04-21 07:19 36.01579 -121.31480 35194 ft 434 kts 313°
2026-04-21 07:20 36.06409 -121.36019 35195 ft 435 kts 313°
2026-04-21 07:20 36.11433 -121.40276 35186 ft 442 kts 318°
2026-04-21 07:21 36.16649 -121.44254 35180 ft 428 kts 319°
2026-04-21 07:21 36.19164 -121.46068 35180 ft 414 kts 320°